Select another period ( hide this area )

Eenheden Periode Custom range Directly to
Metrisch Engels Beide
Dagelijkse Wekelijkse Maandelijkse Jaarlijkse
use both date-selectors for a custom range
previous Dag
With this date

WeatherUnderground graphs for this period ( click here )


Dagelijkse Samenvatting Woensdag 18 september 2019
Tijd Temp. ( °C ) Dew pt. ( °C ) Wind ( km/h ) van Windvlaag ( km/h ) Luchtdruk ( hPa ) Humid.( % ) Rainrate ( cm )
Hoog14,5 8,9 3,2 NW ( 5/5 ) 12,9 1027,7 87 -
Gemiddeld11,8 8,2 0,1 Kalm #32/34 1,9 1026,1 79 -
Laag10,9 6,7 -   0,0 1025,3 67 -
Dagelijkse Tabular details for Woensdag 18 september 2019
Tijd Temp. ( °C ) Dew pt. ( °C ) Wind ( km/h ) van Windvlaag ( km/h ) Luchtdruk ( hPa ) Humid.( % ) Rainrate ( cm )
00:00 12,7 7,2 1,6 NW 12,9 1025,3 70 -
00:15 12,4 6,7   Kalm 8,0 1025,3 69 -
00:30 12,2 6,7   Kalm 6,4 1025,6 70 -
01:15 12,1 7,2   Kalm 3,2 1025,6 73 -
01:30 12,2 7,2   Kalm 3,2 1025,6 72 -
01:45 12,3 7,8   Kalm 3,2 1025,6 73 -
02:00 12,2 7,8   Kalm 1,6 1025,6 73 -
02:15 12,0 7,8   Kalm   1025,6 74 -
02:45 11,6 7,8   Kalm   1025,6 77 -
03:00 11,6 7,8   Kalm   1025,6 78 -
03:30 11,5 8,3   Kalm   1025,6 80 -
03:45 11,6 8,3   Kalm   1025,6 81 -
04:15 11,7 8,9   Kalm   1025,6 82 -
04:30 11,7 8,9   Kalm 4,8 1026,0 82 -
04:45 11,8 8,9   Kalm   1025,6 82 -
05:00 11,8 8,9   Kalm 4,8 1026,0 82 -
05:15 11,8 8,9   Kalm 1,6 1026,0 81 -
05:30 11,6 8,9   Kalm   1026,0 82 -
06:00 11,3 8,3   Kalm   1026,0 83 -
06:15 11,1 8,9   Kalm   1026,0 85 -
06:30 11,1 8,9   Kalm   1026,0 86 -
06:45 11,1 8,9   Kalm   1026,0 87 -
07:00 11,1 8,9   Kalm   1026,3 87 -
07:15 11,1 8,9   Kalm   1026,3 87 -
07:30 11,0 8,9   Kalm   1026,3 86 -
07:45 10,9 8,3   Kalm   1026,3 85 -
08:00 10,9 8,3   Kalm   1026,6 84 -
08:15 11,1 8,3   Kalm   1026,6 82 -
08:30 11,3 8,3   Kalm   1026,6 81 -
08:45 11,4 8,3   Kalm   1026,6 81 -
09:00 11,6 8,3   Kalm   1027,0 81 -
09:15 12,2 8,3   Kalm 3,2 1027,3 78 -
09:30 13,1 8,3 3,2 NW 6,4 1027,3 73 -
10:00 14,5 8,3   Kalm 4,8 1027,7 67 -
Dagelijkse Samenvatting Woensdag 18 september 2019
Tijd Temp. ( °C ) Dew pt. ( °C ) Wind ( km/h ) van Windvlaag ( km/h ) Luchtdruk ( hPa ) Humid.( % ) Rainrate ( cm )
Hoog14,5 8,9 3,2 NW ( 5/5 ) 12,9 1027,7 87 -
Gemiddeld11,8 8,2 0,1 Kalm #32/34 1,9 1026,1 79 -
Laag10,9 6,7 -   0,0 1025,3 67 -
Dagelijkse Tabular details for Woensdag 18 september 2019
Tijd Temp. ( °C ) Dew pt. ( °C ) Wind ( km/h ) van Windvlaag ( km/h ) Luchtdruk ( hPa ) Humid.( % ) Rainrate ( cm )
00:00 12,7 7,2 1,6 NW 12,9 1025,3 70 -
00:15 12,4 6,7   Kalm 8,0 1025,3 69 -
00:30 12,2 6,7   Kalm 6,4 1025,6 70 -
01:15 12,1 7,2   Kalm 3,2 1025,6 73 -
01:30 12,2 7,2   Kalm 3,2 1025,6 72 -
01:45 12,3 7,8   Kalm 3,2 1025,6 73 -
02:00 12,2 7,8   Kalm 1,6 1025,6 73 -
02:15 12,0 7,8   Kalm   1025,6 74 -
02:45 11,6 7,8   Kalm   1025,6 77 -
03:00 11,6 7,8   Kalm   1025,6 78 -
03:30 11,5 8,3   Kalm   1025,6 80 -
03:45 11,6 8,3   Kalm   1025,6 81 -
04:15 11,7 8,9   Kalm   1025,6 82 -
04:30 11,7 8,9   Kalm 4,8 1026,0 82 -
04:45 11,8 8,9   Kalm   1025,6 82 -
05:00 11,8 8,9   Kalm 4,8 1026,0 82 -
05:15 11,8 8,9   Kalm 1,6 1026,0 81 -
05:30 11,6 8,9   Kalm   1026,0 82 -
06:00 11,3 8,3   Kalm   1026,0 83 -
06:15 11,1 8,9   Kalm   1026,0 85 -
06:30 11,1 8,9   Kalm   1026,0 86 -
06:45 11,1 8,9   Kalm   1026,0 87 -
07:00 11,1 8,9   Kalm   1026,3 87 -
07:15 11,1 8,9   Kalm   1026,3 87 -
07:30 11,0 8,9   Kalm   1026,3 86 -
07:45 10,9 8,3   Kalm   1026,3 85 -
08:00 10,9 8,3   Kalm   1026,6 84 -
08:15 11,1 8,3   Kalm   1026,6 82 -
08:30 11,3 8,3   Kalm   1026,6 81 -
08:45 11,4 8,3   Kalm   1026,6 81 -
09:00 11,6 8,3   Kalm   1027,0 81 -
09:15 12,2 8,3   Kalm 3,2 1027,3 78 -
09:30 13,1 8,3 3,2 NW 6,4 1027,3 73 -
10:00 14,5 8,3   Kalm 4,8 1027,7 67 -

Download your copy of this data-set  here

Our weather-data as stored at Weather Underground. Script ontwikkeld door Jim McMurry. Aangepast voor de template door Leuven-Template.eu

U vindt ons ook hier:

Het Weer Aktueel

European Weather Network

WeatherCloud

Weather Underground

Benelux Weer Netwerk

Apparatuur in gebruik:

Weerstation
Davis VP2

Weerprogramma
consoleWD

Weercomputer
Raspberry

Webleverancier
Stef van Bakel koeltechniek

Davis VP2

consoleWD

Raspberry

Stef van Bakel koeltechniek